GFSGBSN_700_spd_009.txt.gz
Wind_Speed
40 37 34 33 31 29 27 26 26 25 24 22 24 24 28 29 29 24 16 13 11 12 12 10 8 7 10 9 9 6 6 10 13 10 7 7 7 13 17 17 14 4 1 13 17 18 19
43 41 37 33 31 29 27 25 25 25 21 21 23 23 27 27 24 18 13 12 11 12 10 10 10 13 14 14 11 11 10 12 10 9 8 6 8 9 11 14 13 3 6 6 21 17 19
47 43 39 35 32 28 28 26 25 24 20 20 22 23 26 25 18 14 12 13 12 10 11 11 13 15 16 11 10 13 9 6 8 10 8 8 12 16 9 9 9 5 9 8 16 19 17
49 45 40 36 33 29 27 26 25 22 19 21 22 23 24 20 13 12 10 12 11 12 12 13 16 15 14 13 10 11 11 11 11 9 11 14 15 10 11 10 12 14 11 12 16 16 17
51 47 43 37 34 30 27 25 24 20 18 21 22 21 20 15 10 9 10 11 11 12 13 16 18 16 9 17 13 13 10 10 8 6 9 10 10 11 13 15 18 14 8 10 14 14 12
54 50 45 40 35 31 28 26 23 19 19 21 20 19 16 11 9 9 11 11 12 13 16 19 16 12 7 19 15 11 8 6 4 5 10 4 7 5 17 22 13 11 11 14 14 11 8
58 52 48 43 38 32 29 27 23 19 20 21 18 16 13 10 10 12 13 13 12 12 17 14 14 6 8 14 18 14 11 7 5 5 8 14 12 10 22 17 7 8 8 12 13 13 11
60 56 49 45 39 34 31 27 23 20 20 19 16 14 13 11 13 14 14 14 12 11 17 10 14 7 9 13 19 13 11 11 8 4 12 13 17 14 13 11 7 7 6 8 13 16 14
61 58 54 48 42 36 32 28 23 22 20 17 16 14 15 14 15 16 15 12 10 14 17 10 9 7 9 8 22 16 13 9 6 6 9 10 8 10 8 6 5 2 3 5 6 19 16
62 60 56 51 44 37 34 29 25 23 20 17 17 17 17 21 20 17 15 14 10 14 10 12 11 7 6 7 13 23 17 9 6 8 11 9 8 5 4 5 4 1 3 5 5 17 7
60 63 59 53 45 40 36 31 27 25 21 19 20 21 25 25 20 17 16 15 13 13 3 10 14 7 6 10 14 18 17 11 12 15 11 8 8 5 3 3 2 4 5 5 12 10 7
61 65 62 54 48 42 38 33 30 27 23 23 24 27 30 27 21 18 17 15 14 6 4 11 18 11 9 7 16 15 14 12 14 12 9 9 9 7 6 2 1 4 8 10 8 6 3
62 67 61 54 49 45 40 36 34 29 27 27 28 32 31 26 22 20 19 17 9 4 8 11 21 14 11 12 17 14 14 15 11 9 8 8 8 6 4 5 5 7 13 3 2 2 4
64 70 64 53 52 48 44 40 38 33 31 32 35 36 33 27 23 21 21 18 6 4 13 12 19 17 12 12 16 16 14 15 10 9 11 8 4 7 9 9 6 11 14 6 5 3 2
63 73 70 56 55 51 47 44 40 37 36 37 40 37 35 29 24 22 22 19 7 5 12 15 17 19 14 11 9 16 15 13 11 9 6 8 5 8 8 11 8 7 10 12 3 2 1
56 77 76 62 58 53 50 48 44 41 39 41 40 36 35 27 26 21 22 19 10 5 12 14 16 17 14 13 8 13 14 13 12 11 11 7 5 9 8 10 10 7 8 4 5 3 3
52 84 74 62 58 56 53 51 46 43 42 43 41 36 35 29 27 25 25 25 9 6 12 15 17 16 13 15 10 12 9 6 13 12 13 11 7 8 9 8 10 10 8 4 4 3 3
47 66 63 58 59 57 56 54 49 46 47 47 44 38 36 33 29 30 26 26 9 7 14 18 17 9 11 15 14 12 12 7 6 11 14 14 8 8 11 8 10 10 9 7 4 5 6
46 72 59 59 59 57 56 55 53 49 48 48 44 38 36 34 33 30 28 27 15 10 11 15 17 12 11 11 16 16 14 12 9 9 11 14 9 7 5 10 13 13 13 11 8 6 7
52 73 60 58 59 57 56 56 53 49 47 45 43 33 37 34 34 32 29 28 15 11 10 11 12 15 13 10 14 14 17 14 11 11 14 15 14 12 16 7 10 17 17 14 12 7 8
66 49 56 60 58 57 57 55 52 49 47 45 43 35 42 38 36 32 29 26 17 12 10 12 11 12 11 9 15 12 13 11 12 13 14 16 15 16 14 12 9 11 13 14 16 17 15
74 51 56 57 56 55 55 54 53 50 48 46 40 36 34 22 34 31 30 26 21 13 11 11 11 12 13 10 7 8 7 9 11 12 14 15 11 14 15 15 13 15 15 17 19 22 24
48 55 59 56 54 54 54 54 52 50 48 46 38 31 32 35 21 33 34 33 19 16 11 9 12 13 12 12 11 10 9 10 9 11 10 14 16 12 8 14 16 15 22 22 23 23 22
56 57 56 53 52 52 53 53 51 49 46 42 39 34 25 27 31 30 32 31 21 16 13 11 9 10 11 8 6 6 5 6 7 8 9 10 13 11 7 9 3 18 20 19 19 18 19
57 55 50 49 49 49 50 51 49 46 43 40 37 34 30 22 24 24 34 32 26 18 15 15 12 11 9 9 7 5 5 6 10 10 10 10 11 8 5 10 17 13 14 18 22 23 18
52 49 47 45 45 46 47 47 47 45 43 39 35 31 23 20 23 24 29 32 32 23 16 14 12 11 12 11 9 6 4 2 4 3 7 11 13 14 10 5 4 8 9 13 19 23 21
47 45 43 41 41 41 42 43 43 42 42 40 32 28 23 19 16 23 27 34 36 29 21 18 16 13 11 11 11 11 11 8 5 5 6 9 9 14 17 12 10 15 18 20 11 15 10
42 41 39 38 37 36 37 37 39 41 42 39 33 23 22 19 15 18 26 32 30 27 23 22 20 19 15 15 13 12 9 11 10 14 13 12 7 8 8 7 7 9 9 10 13 18 20
40 38 35 33 31 32 33 35 37 39 39 36 33 25 19 18 17 23 27 23 24 25 23 20 18 13 14 13 13 10 12 14 15 14 15 13 15 11 10 9 15 21 22 20 21 20 21

GFSGBSN_700_spd_012.txt.gz
Wind_Speed
40 39 38 36 33 31 30 25 24 24 24 22 22 23 23 23 24 26 25 20 17 13 11 10 8 8 8 7 4 2 3 5 7 9 9 7 9 12 13 13 16 10 8 9 15 16 12
42 43 42 39 36 32 31 27 25 23 22 21 21 23 22 23 24 26 21 17 15 12 10 9 9 10 12 11 7 5 7 12 11 9 8 9 8 10 11 11 11 6 4 18 17 18 12
45 44 45 42 39 34 32 29 26 23 21 20 20 22 21 23 24 23 17 14 13 11 9 9 11 14 15 10 8 9 7 5 6 7 7 6 6 10 8 8 10 8 4 10 24 14 11
45 46 44 44 42 36 33 30 27 24 20 20 20 21 21 22 23 19 14 12 12 9 9 11 13 15 14 14 11 10 7 6 6 6 10 14 14 12 11 11 10 7 10 9 13 13 13
42 46 46 44 44 39 36 31 28 24 20 19 20 20 21 21 20 14 11 11 10 8 10 12 16 17 12 13 12 6 6 7 7 7 8 13 13 11 10 8 9 12 9 11 13 17 17
41 43 46 46 44 41 37 33 29 25 20 20 19 20 19 20 15 12 10 11 10 10 12 16 16 16 13 15 15 10 3 6 9 3 9 12 19 11 14 14 15 12 9 14 14 15 12
43 43 45 47 44 43 38 34 30 26 22 21 19 19 16 16 13 11 11 11 10 10 14 15 16 7 12 21 14 10 9 6 8 6 5 5 7 7 14 14 5 8 8 14 14 17 13
45 45 44 47 47 43 40 35 31 28 23 22 19 17 15 14 13 12 13 12 12 11 16 13 16 9 10 19 17 12 7 7 4 8 8 7 7 8 16 13 7 4 12 12 16 16 14
48 46 45 45 49 44 43 37 33 28 25 23 19 16 14 15 12 13 14 13 11 13 16 11 14 10 9 13 22 15 9 13 1 12 12 13 16 10 10 9 8 9 9 8 9 21 19
51 47 47 45 48 45 44 39 35 30 26 25 19 16 16 15 17 19 15 13 11 14 10 10 11 9 10 8 20 22 14 10 11 9 10 6 10 10 10 7 6 5 5 2 2 14 14
54 51 49 48 48 47 45 41 37 32 29 26 21 18 19 21 23 19 17 14 14 18 7 11 12 10 9 12 14 26 19 10 10 10 10 8 11 9 7 6 7 7 5 4 5 9 8
57 54 52 51 51 49 47 43 39 35 32 27 23 23 25 28 24 22 21 16 17 9 5 10 17 11 10 13 14 22 21 13 12 11 12 10 12 10 8 7 7 7 6 8 7 6 8
57 56 55 56 54 51 49 46 41 38 34 29 26 28 29 30 26 24 23 18 10 9 5 10 20 14 12 11 15 18 19 17 11 12 10 10 10 8 7 6 7 8 10 6 7 6 7
67 62 61 61 58 55 49 48 45 41 37 33 30 33 37 32 29 25 24 20 9 11 9 11 19 15 12 13 17 16 17 16 16 14 12 13 7 8 10 10 7 11 10 6 5 6 7
52 70 68 66 62 59 54 50 48 45 40 36 36 41 42 35 30 27 26 19 11 8 13 14 20 18 13 15 12 17 14 14 14 12 8 8 4 9 9 12 9 9 10 11 5 3 5
54 50 46 60 67 61 55 53 52 49 43 39 40 44 41 36 31 29 27 19 12 9 15 17 19 18 17 15 12 17 16 16 13 11 9 9 4 9 9 10 12 9 7 4 6 3 5
55 51 47 44 71 63 57 56 55 51 45 42 45 47 43 39 32 29 25 23 21 10 18 17 16 14 16 15 13 12 11 11 16 13 11 10 7 6 9 9 9 12 9 8 5 3 3
53 52 50 48 73 68 58 59 58 53 49 48 52 46 45 42 36 29 26 25 18 13 15 18 16 13 14 14 13 11 11 14 12 16 14 14 9 6 10 12 14 15 10 10 7 5 5
49 48 48 49 73 72 57 61 61 59 56 54 55 36 44 42 34 34 26 29 23 13 16 18 19 13 15 13 13 16 14 13 10 7 11 15 9 6 4 8 13 13 16 15 13 9 8
45 44 43 48 72 77 58 64 64 60 54 52 53 35 45 44 32 30 28 27 24 14 15 19 19 16 13 14 15 12 18 14 13 11 10 12 16 11 13 6 8 14 21 19 13 8 9
38 39 41 49 66 62 65 65 64 58 55 57 52 34 39 51 42 30 28 26 22 18 16 17 16 17 17 14 13 17 17 18 16 14 13 14 14 19 19 15 13 13 13 20 22 18 13
40 40 46 55 54 53 64 65 61 57 57 58 44 35 38 28 43 31 31 26 24 20 17 17 12 15 15 12 9 13 13 15 13 13 16 17 13 16 18 18 17 17 17 18 20 21 24
38 39 43 64 47 55 63 65 61 60 60 61 39 30 40 25 41 37 35 28 26 20 16 14 12 14 15 14 11 9 10 12 12 14 14 17 16 12 8 16 18 15 25 25 25 24 24
37 30 62 45 58 67 67 64 61 58 55 57 32 30 35 37 27 38 33 31 22 23 17 15 11 15 15 13 12 12 11 11 11 12 12 12 14 12 7 6 4 13 19 18 21 21 22
27 57 39 60 62 63 65 63 58 54 51 52 29 28 29 29 31 22 35 32 30 22 21 16 13 10 12 12 11 8 9 8 10 10 11 11 11 8 5 8 16 15 14 16 19 19 18
61 37 64 58 60 60 61 59 55 51 49 47 33 32 24 24 30 27 27 35 34 28 23 21 16 14 13 16 12 8 6 6 4 4 13 15 13 13 8 4 4 7 10 13 14 14 12
47 58 58 57 57 57 58 55 52 50 47 43 40 34 30 24 19 24 29 36 35 32 27 22 19 16 15 17 15 11 8 8 4 5 5 7 8 14 16 10 7 12 15 15 5 6 9
52 53 52 51 53 53 53 51 49 47 44 42 38 31 25 22 20 16 29 29 37 35 30 24 21 20 19 15 14 11 9 10 11 12 9 7 5 6 7 7 6 4 4 5 10 19 23
51 49 48 48 47 47 48 48 47 45 43 40 35 31 27 24 16 17 22 23 33 35 30 25 23 17 19 15 14 9 10 9 11 8 11 10 11 7 7 6 12 18 17 17 19 22 23

GFSGBSN_700_spd_015.txt.gz
Wind_Speed
39 37 36 36 34 33 32 29 27 26 25 23 22 23 22 22 21 21 24 27 23 17 14 12 9 9 7 6 3 6 3 3 3 6 9 10 9 9 9 11 13 8 7 8 9 7 10
40 39 36 36 36 35 34 31 29 27 25 24 23 23 21 22 21 20 24 25 20 14 11 10 8 9 8 7 4 1 4 9 10 10 10 10 7 8 9 12 13 9 9 8 9 10 9
36 38 38 37 36 37 35 33 29 27 26 24 23 22 21 21 21 20 23 22 17 13 9 8 10 9 10 7 4 2 6 5 8 5 6 9 7 7 6 8 11 7 7 12 11 15 8
34 34 35 36 37 36 36 34 32 29 27 25 24 23 21 20 20 19 21 19 14 9 7 9 9 12 11 9 6 4 1 3 4 7 11 14 12 10 10 11 8 8 10 18 15 13 10
36 35 35 33 36 37 36 35 33 31 28 25 24 23 21 19 19 17 17 14 10 6 8 10 12 15 8 12 7 3 3 3 3 4 6 7 12 13 7 7 9 10 11 10 15 13 9
40 38 37 36 33 36 36 35 33 32 28 26 24 23 21 19 17 14 13 11 8 8 10 12 15 13 11 10 10 4 3 3 2 1 4 5 8 7 9 12 13 9 13 14 13 14 14
45 42 41 39 37 36 36 35 35 34 29 27 25 23 21 18 15 12 11 9 6 7 12 17 11 6 11 15 14 4 4 4 6 4 4 3 7 8 10 14 6 10 9 13 14 11 13
51 48 45 43 40 37 36 37 35 35 30 28 27 23 20 18 14 12 11 11 14 12 10 15 18 10 12 21 12 9 7 5 10 7 8 8 16 11 12 12 6 5 6 11 8 12 11
58 53 49 47 44 40 37 36 36 36 32 29 28 24 20 17 14 11 11 13 12 10 10 11 18 14 9 16 15 12 10 8 7 11 16 10 8 3 8 9 7 6 10 11 10 13 12
62 58 55 50 47 43 39 38 38 38 34 31 29 25 20 17 15 13 14 14 12 12 7 13 17 13 11 11 17 15 11 9 7 7 7 9 11 5 6 7 6 9 7 10 6 9 21
66 63 59 55 50 47 43 40 39 40 36 33 31 26 21 20 16 20 21 17 14 16 5 13 14 12 11 12 13 20 15 5 13 7 14 10 11 10 11 6 9 6 9 8 8 14 7
68 65 62 59 54 50 46 44 42 42 39 36 32 27 24 22 24 24 22 19 17 11 8 12 15 14 12 13 13 17 20 12 10 11 11 8 11 7 3 8 6 7 5 6 9 14 10
68 66 64 62 58 54 50 47 44 44 41 39 35 30 25 27 30 28 25 20 12 15 9 15 20 15 15 14 12 16 23 20 16 14 14 9 8 10 8 5 6 7 9 14 11 11 11
68 67 66 64 62 58 55 50 48 47 43 41 37 33 30 35 33 32 28 22 17 17 15 9 18 16 16 13 13 14 20 23 21 17 17 16 12 13 11 10 7 11 14 16 6 6 11
62 71 71 68 67 63 60 54 52 48 46 44 40 37 37 40 36 34 31 23 22 14 16 13 18 18 17 15 12 15 16 20 18 18 18 13 6 11 9 8 8 10 12 11 8 6 10
64 60 64 74 73 69 65 59 56 50 49 47 42 38 39 42 39 36 29 28 21 13 15 15 21 21 19 18 15 19 17 14 12 15 14 5 5 4 8 8 11 11 4 6 10 4 9
66 55 55 53 65 74 69 62 57 54 53 46 44 39 45 45 40 39 33 29 21 15 13 17 21 17 18 18 18 19 15 10 16 14 13 12 12 5 7 11 12 10 14 11 6 5 4
52 57 57 54 51 50 69 67 57 56 52 52 47 41 52 48 44 36 33 29 18 15 14 14 18 15 17 18 18 16 19 13 15 15 14 14 10 11 12 11 14 8 11 13 10 7 5
50 52 47 58 51 52 71 71 60 58 60 57 51 36 45 48 44 36 30 27 22 16 14 17 18 15 14 16 16 17 15 17 13 15 13 13 12 13 11 10 11 12 14 13 11 11 11
41 54 44 60 51 55 75 73 61 62 62 58 43 38 48 55 40 31 33 30 25 18 15 16 16 15 14 14 15 12 14 15 15 15 12 13 16 16 16 10 4 12 14 16 17 12 14
39 39 47 55 46 50 79 78 57 55 64 57 43 42 51 58 47 33 32 29 29 20 15 17 16 19 16 14 14 13 13 16 17 17 15 14 11 16 19 12 13 11 12 15 21 22 19
37 37 45 48 48 49 63 86 53 59 62 61 42 42 38 33 43 32 34 30 33 22 19 19 16 18 16 15 14 12 14 14 15 18 16 17 11 15 17 14 18 16 16 18 19 21 22
33 33 41 49 45 55 59 75 51 67 69 66 40 39 40 32 46 35 36 28 33 23 20 18 17 16 14 15 14 10 15 11 11 12 14 13 16 11 9 10 10 15 25 22 21 21 20
34 33 40 43 49 61 58 49 65 70 70 59 39 29 44 34 47 40 31 26 30 25 18 20 15 14 16 16 14 12 11 12 15 16 15 16 15 9 6 4 1 11 13 15 17 20 22
34 38 45 48 48 66 52 60 70 70 67 50 34 32 34 35 36 38 28 26 25 25 16 22 19 14 14 14 13 9 9 10 12 13 15 14 13 8 5 10 12 14 12 12 11 13 10
41 43 44 48 39 64 44 60 67 69 62 41 48 35 25 37 25 33 30 29 26 26 25 20 17 15 13 16 14 8 7 7 5 5 16 14 14 11 8 4 4 3 9 9 10 10 6
40 40 40 41 66 46 67 68 67 66 65 37 39 30 21 24 25 22 33 29 25 21 23 26 22 17 14 16 18 8 9 8 5 6 6 11 14 15 12 8 7 10 14 11 5 4 10
38 35 43 50 53 70 66 66 66 63 59 39 37 34 27 21 22 27 22 25 26 26 27 27 23 22 20 17 18 10 10 10 9 8 7 7 6 7 8 7 7 9 3 2 8 16 23
37 55 40 53 67 62 62 62 59 58 55 37 35 34 30 20 19 23 23 27 28 24 24 26 21 20 19 13 14 11 11 9 11 6 10 6 10 5 7 3 11 10 17 15 20 22 22

GFSGBSN_700_spd_021.txt.gz
Wind_Speed
26 28 30 33 34 34 34 33 32 29 28 26 25 23 22 19 19 20 21 21 21 21 23 18 14 12 9 5 5 10 10 6 3 4 7 11 7 3 5 4 7 10 12 7 10 14 13
27 26 25 26 29 32 33 34 33 32 29 28 25 23 21 20 18 19 20 21 20 21 21 15 11 10 5 1 6 4 6 4 1 5 11 14 7 6 15 17 13 7 8 11 7 7 5
29 29 28 26 25 25 29 32 34 33 32 30 27 23 21 20 18 18 19 20 19 21 18 12 9 7 2 4 6 7 6 4 6 7 16 8 5 8 7 8 4 7 4 1 6 7 5
33 31 30 29 27 25 24 26 31 33 32 31 28 24 22 20 17 18 18 19 18 19 14 9 7 4 3 4 4 2 4 1 2 2 9 1 10 12 9 5 3 2 6 5 8 6 3
39 37 34 33 32 29 26 24 25 29 32 32 29 25 22 20 17 17 17 17 17 15 12 8 6 5 6 6 7 3 4 3 8 5 8 7 5 12 5 5 5 8 7 5 10 9 8
47 43 41 38 37 33 30 26 25 24 28 31 29 26 21 20 18 17 16 15 15 13 10 7 6 6 3 4 4 1 2 3 4 6 1 2 2 7 4 5 7 6 6 16 12 14 11
53 50 47 44 40 37 34 32 28 27 25 28 30 26 23 21 19 17 14 13 13 14 13 8 10 8 15 7 9 7 2 4 1 2 5 5 6 3 2 9 10 12 9 7 15 16 10
60 56 52 49 46 41 39 36 33 29 27 26 28 27 24 22 20 16 13 10 18 18 13 13 14 21 20 15 13 11 9 1 3 4 1 8 5 3 7 9 11 13 14 21 18 13 10
66 62 59 55 51 47 43 41 38 34 31 28 27 27 25 23 21 15 13 8 16 16 17 13 17 23 18 12 14 11 16 5 7 4 4 5 10 6 8 12 14 9 3 9 9 3 9
71 68 65 61 58 53 49 44 42 38 35 32 28 28 25 25 21 15 12 12 14 13 9 10 14 22 22 8 12 18 18 8 12 9 11 6 9 12 12 12 11 17 6 4 8 3 4
75 70 68 66 62 59 54 50 46 42 38 35 31 29 27 28 20 16 15 16 14 8 3 1 13 9 23 18 10 19 6 22 11 11 12 5 10 9 19 8 3 6 8 6 13 15 11
82 76 71 68 65 62 58 55 51 47 42 37 35 31 32 28 20 16 17 17 16 7 8 8 14 18 16 14 13 14 15 14 8 7 11 14 13 11 11 3 8 5 4 5 11 10 6
79 80 77 72 69 64 62 59 54 50 45 41 38 34 33 30 23 24 23 18 13 8 8 12 20 16 20 19 15 19 25 22 14 13 12 6 11 12 8 8 6 8 9 2 3 5 3
68 73 78 76 73 68 64 61 57 52 48 45 41 36 35 32 30 26 27 25 14 8 16 10 20 18 17 19 17 18 19 23 25 16 8 13 7 6 9 18 11 8 13 6 5 1 7
55 51 56 75 75 72 67 65 61 55 50 48 44 42 42 34 33 29 33 33 22 18 22 12 20 20 19 19 19 21 23 25 25 26 22 13 12 21 12 7 6 8 7 12 5 5 2
53 60 60 57 68 72 70 67 63 59 54 52 49 48 42 35 37 35 41 38 31 20 13 16 17 20 22 23 22 23 21 23 24 28 24 17 3 9 20 8 10 14 10 2 2 5 4
54 61 59 53 56 67 69 69 66 62 58 54 49 48 43 39 40 42 53 42 36 29 16 11 19 20 23 22 21 20 21 20 23 19 13 16 16 5 19 19 15 15 11 10 8 3 5
52 55 59 55 47 51 48 65 69 66 62 56 55 49 43 45 48 51 58 49 40 32 22 14 14 25 24 22 21 22 22 11 17 20 23 17 10 13 18 11 9 11 6 7 13 6 3
53 55 59 55 48 48 48 48 56 67 66 62 55 48 31 43 53 57 52 50 42 36 25 12 23 20 24 20 25 24 18 14 16 21 14 15 5 8 11 7 11 14 14 17 11 16 14
49 53 57 56 53 43 50 49 51 52 68 64 54 46 44 44 55 57 51 53 50 41 23 16 20 23 19 14 18 17 22 16 19 19 17 17 11 10 10 11 9 9 10 13 14 11 11
49 49 54 53 57 47 49 53 54 52 68 69 56 56 48 57 61 57 52 50 50 44 34 21 21 29 21 16 21 17 18 15 13 10 11 13 17 16 17 17 15 10 11 9 16 15 18
47 50 50 55 50 43 50 53 54 59 73 64 57 54 50 33 55 53 45 55 52 45 30 26 20 25 23 18 20 18 17 14 17 14 14 14 15 15 15 18 19 16 14 19 16 13 16
44 47 50 53 48 48 52 55 56 64 78 68 59 55 48 50 28 55 60 58 48 43 27 25 20 21 23 22 20 15 19 21 12 12 19 19 19 18 14 15 16 18 22 22 18 20 19
41 43 44 45 46 47 47 56 48 64 73 74 65 53 34 48 40 59 54 53 51 44 30 21 20 25 22 23 21 24 18 16 17 17 14 21 18 12 6 7 0 8 3 8 6 2 7
35 38 38 41 41 50 50 54 55 64 66 67 59 61 22 47 42 36 56 57 44 41 28 31 27 34 26 26 23 18 11 9 9 14 15 17 15 11 6 12 11 11 8 9 8 4 7
36 35 32 35 43 47 55 55 61 70 51 68 62 58 23 28 52 49 55 53 49 39 32 42 35 29 27 26 23 12 9 10 8 11 18 19 16 15 10 5 6 3 4 6 5 8 9
35 32 36 38 41 47 43 54 58 76 55 64 66 57 38 13 31 42 50 53 47 37 38 37 33 32 31 29 20 12 12 12 12 10 7 13 16 17 14 7 6 9 11 13 9 9 11
34 35 29 41 41 45 46 52 58 81 57 66 63 54 44 12 34 40 43 49 41 41 39 37 37 33 29 22 19 13 11 18 10 9 7 9 10 13 14 7 9 12 12 12 12 14 12
38 35 31 39 42 44 48 48 53 76 64 66 52 52 45 25 30 35 52 44 33 41 35 31 31 33 25 22 15 17 13 20 16 11 9 9 9 9 7 3 6 5 9 10 12 13 19

GFSGBSN_700_spd_024.txt.gz
Wind_Speed
26 25 25 26 28 31 32 32 32 32 31 30 28 26 25 23 21 19 19 19 18 19 19 19 17 13 8 6 4 7 7 5 3 1 8 10 12 7 6 11 16 15 9 4 7 9 13
26 25 23 21 21 23 26 29 31 31 32 31 29 27 25 23 21 19 19 19 18 18 18 18 14 10 5 4 2 3 6 9 7 4 17 12 5 0 10 11 8 7 4 7 10 5 4
29 28 25 22 21 20 19 22 25 29 30 31 30 29 26 24 22 19 19 18 17 17 18 15 11 7 4 5 2 5 6 8 10 13 11 3 1 2 7 5 6 7 8 7 9 6 4
35 32 30 28 34 26 20 20 21 22 26 29 30 29 27 24 21 19 18 18 17 16 17 13 9 5 6 8 6 7 4 4 5 11 11 6 6 6 9 3 4 4 9 7 14 8 6
43 39 36 33 30 29 37 30 23 22 22 24 28 29 27 24 22 20 19 18 18 16 16 12 8 5 6 5 5 6 6 6 7 4 9 8 8 9 5 1 4 4 6 6 5 10 5
49 47 43 40 37 34 32 30 39 24 23 21 22 25 25 24 22 20 20 18 17 16 16 11 8 6 6 8 6 5 5 5 5 8 1 6 3 10 6 5 3 2 3 9 11 15 16
58 54 50 46 43 38 33 30 35 36 26 24 20 21 23 23 23 20 19 18 17 18 14 10 9 12 18 16 11 9 4 2 3 1 4 6 7 7 7 7 8 10 8 15 15 12 16
66 62 59 54 49 44 39 35 33 32 32 27 23 20 21 22 22 21 18 16 17 18 17 13 16 20 21 19 16 12 9 4 2 3 3 2 4 2 6 4 5 10 17 16 19 14 15
70 68 65 61 56 51 46 41 38 35 33 30 26 23 21 19 23 21 17 16 21 16 18 10 15 22 23 19 14 19 14 8 2 1 4 6 2 5 7 12 10 17 14 9 3 9 9
74 72 69 65 62 57 53 47 42 40 36 34 31 26 20 21 23 20 18 19 16 15 11 11 16 22 28 18 18 22 18 15 12 5 10 9 8 10 11 15 15 10 9 10 5 3 2
79 76 73 70 67 63 57 54 48 44 41 36 33 27 24 25 23 20 20 16 13 11 3 2 15 11 27 23 8 22 21 18 10 11 13 11 13 12 15 11 4 7 5 7 9 10 3
80 81 78 73 70 67 63 59 55 49 45 42 36 32 27 26 21 23 19 17 15 8 8 9 12 17 28 26 15 22 21 13 18 15 12 9 8 5 4 6 8 5 4 9 8 8 2
66 77 78 78 74 69 66 63 59 55 50 47 42 37 30 26 24 27 21 18 13 8 8 14 18 16 22 29 18 26 21 19 16 8 13 9 6 5 6 8 7 4 7 3 3 1 4
50 55 59 68 79 74 68 65 63 59 55 51 46 41 36 29 31 29 26 23 14 9 17 8 22 18 20 21 18 19 20 19 22 17 13 13 4 11 10 7 6 10 10 6 3 3 3
50 51 54 51 62 74 72 67 65 62 58 54 48 46 43 32 36 33 34 35 17 18 24 12 25 25 24 17 19 21 23 20 24 26 23 8 8 8 10 12 6 5 7 7 6 2 2
52 51 48 55 59 52 72 70 68 65 61 56 53 50 48 36 39 36 40 42 34 28 11 22 23 26 25 20 24 21 25 19 24 25 23 24 14 15 12 16 20 16 7 2 4 4 3
53 52 52 54 62 57 61 66 68 69 64 59 52 50 52 42 44 43 54 49 40 33 24 10 21 16 26 21 25 28 26 21 19 26 26 26 19 12 16 18 18 16 14 13 10 5 4
53 53 51 50 59 61 54 46 66 70 64 61 56 52 48 49 47 52 60 55 43 40 33 22 17 11 22 24 25 27 29 24 16 22 27 27 17 15 22 10 9 9 14 15 9 6 6
54 53 52 49 52 49 48 51 48 65 65 63 59 44 34 51 54 60 56 51 49 41 42 33 24 12 13 23 27 26 22 22 18 13 28 23 14 13 12 18 17 21 16 15 15 12 16
55 52 51 51 54 49 51 50 46 50 53 61 53 42 40 48 61 60 61 57 53 46 45 37 28 20 15 18 13 23 23 24 23 19 24 22 17 21 19 16 11 6 10 10 11 10 14
54 52 50 51 57 57 55 48 49 52 55 62 54 51 54 61 68 66 59 56 56 52 47 39 30 27 18 15 14 21 21 23 25 26 23 25 21 19 16 15 15 12 9 10 11 11 10
53 52 49 51 56 54 56 49 55 59 61 68 57 43 51 43 62 67 62 62 55 51 46 44 33 25 19 21 13 24 30 19 27 23 22 20 18 21 23 22 21 21 17 15 17 19 16
53 50 47 49 54 55 52 55 58 66 67 71 58 45 49 54 51 64 72 64 57 50 46 42 31 22 19 23 15 12 15 21 17 17 17 20 18 16 17 14 14 16 24 25 22 24 22
50 47 45 43 50 52 48 63 55 67 69 71 52 51 44 57 36 61 64 63 53 53 44 41 29 26 17 23 21 18 15 18 17 18 19 19 20 19 14 14 1 15 11 10 14 14 12
48 43 40 45 48 50 56 48 60 70 70 78 57 45 47 47 48 38 48 56 52 48 43 40 33 29 25 24 24 24 22 19 18 19 19 20 19 14 8 14 12 11 9 13 12 9 9
40 36 37 44 45 54 52 50 52 70 71 77 67 37 33 40 59 48 28 52 51 52 46 49 39 18 29 29 26 19 16 16 12 13 18 19 18 19 12 5 7 9 20 15 14 14 13
36 37 39 42 45 54 47 52 51 63 69 89 70 43 44 24 32 40 48 43 50 48 50 45 41 29 35 31 27 19 18 20 15 18 21 23 21 21 19 12 9 14 13 11 13 11 16
37 38 38 40 43 46 46 61 53 61 72 73 73 50 45 13 31 31 43 38 44 51 56 47 38 38 42 31 30 22 14 19 17 18 19 18 15 18 19 12 11 15 18 20 15 12 13
36 35 35 38 39 43 55 49 56 57 62 81 66 59 29 23 24 32 51 48 38 50 49 42 40 38 32 28 19 23 17 21 20 18 18 16 16 14 13 9 9 8 12 11 11 11 11

GFSGBSN_700_spd_027.txt.gz
Wind_Speed
28 28 28 29 29 29 29 30 32 31 31 31 30 29 28 27 26 25 24 22 22 19 21 19 18 13 9 5 5 7 7 4 2 4 8 9 10 6 6 3 8 6 5 2 6 5 8
30 29 27 26 26 25 24 24 27 29 30 31 30 29 28 27 27 25 24 21 21 19 20 18 16 12 7 3 2 3 5 10 6 9 13 9 6 4 5 2 8 8 3 1 7 4 3
36 33 31 28 27 25 22 20 20 21 23 25 28 29 28 27 26 26 23 21 20 19 19 17 15 10 6 5 3 4 5 8 8 13 8 7 7 3 5 2 5 1 1 4 2 9 5
43 39 36 33 29 28 24 21 20 18 18 18 20 25 27 26 26 26 24 21 20 19 18 17 13 10 6 1 4 6 3 3 9 13 7 9 8 6 2 2 2 7 7 1 5 9 8
50 47 43 39 36 32 32 32 29 21 18 20 16 18 23 25 26 26 24 23 21 20 17 15 12 9 7 6 10 7 5 6 8 10 11 11 9 11 5 3 4 3 8 6 6 6 5
56 53 50 46 43 39 35 32 33 37 40 34 21 15 19 22 23 24 25 24 22 21 18 15 12 8 10 11 14 13 9 8 4 4 4 9 8 7 6 4 3 1 3 4 7 6 11
61 59 56 54 50 45 41 37 34 30 33 35 32 21 18 18 21 22 24 24 21 20 21 14 11 14 15 17 14 13 9 6 6 6 2 3 6 10 5 3 1 2 6 8 8 12 16
66 64 62 60 57 53 48 43 38 35 33 36 37 25 20 18 17 19 22 24 22 22 22 16 16 17 21 22 17 17 11 9 7 6 2 2 5 4 6 7 2 2 10 12 12 14 16
72 70 68 66 64 59 55 49 44 39 34 30 36 31 24 19 17 16 21 24 19 20 23 17 20 18 25 22 19 21 15 10 7 5 2 3 1 1 3 9 6 8 15 12 11 2 7
76 75 73 70 67 64 60 55 50 43 39 35 32 30 30 24 18 14 25 22 14 16 14 16 16 18 31 26 20 22 20 15 13 6 6 4 6 6 9 17 10 19 7 8 10 1 2
71 76 77 74 71 68 64 60 55 49 45 40 36 32 28 27 22 18 20 15 11 14 3 6 15 15 31 28 13 26 22 20 16 13 7 4 6 9 11 18 13 9 6 8 8 5 7
49 56 73 76 75 72 68 64 60 55 50 46 40 35 31 28 22 23 27 17 13 9 9 7 14 19 34 32 14 23 26 20 18 14 14 10 6 5 12 10 7 8 6 5 8 8 2
54 50 52 64 74 75 71 69 65 60 55 50 45 41 36 28 22 23 21 19 13 10 10 12 19 21 29 34 25 27 28 26 23 17 20 12 13 9 9 13 9 7 6 3 2 2 4
54 56 51 48 54 69 74 70 68 65 60 55 50 46 41 33 28 27 26 23 17 10 23 10 20 21 22 30 29 24 25 24 21 20 12 10 5 12 10 7 6 6 5 2 3 2 3
55 57 56 50 48 56 63 72 68 67 64 60 55 51 47 40 33 32 34 38 18 19 20 15 22 24 24 26 26 24 29 29 21 23 19 7 10 13 12 8 7 8 4 6 5 3 1
57 57 57 53 48 44 57 53 68 67 66 62 60 56 54 43 39 37 42 47 31 28 12 18 19 25 27 24 29 24 25 30 25 20 23 21 10 9 10 13 14 13 12 4 4 3 3
62 56 56 55 49 40 46 49 54 65 66 62 61 58 60 48 43 41 57 50 39 34 26 11 21 21 29 27 28 26 22 25 23 22 24 25 20 19 15 16 18 25 22 15 12 7 4
62 62 57 56 48 46 53 56 53 43 62 63 62 61 58 54 48 54 60 49 43 44 35 26 18 21 25 29 27 26 27 30 19 22 27 24 17 19 23 23 22 14 16 13 12 7 8
60 63 61 57 52 51 52 51 51 44 48 60 61 52 30 53 57 64 58 56 48 46 45 38 23 19 16 22 32 27 28 26 28 20 25 28 20 19 17 17 17 17 17 18 19 20 16
58 61 64 59 54 52 54 54 50 47 46 57 52 41 40 46 65 62 61 53 58 52 48 45 37 22 17 13 23 31 27 29 24 23 19 19 22 23 20 19 19 16 17 18 18 17 18
55 60 62 61 55 54 55 60 60 54 43 59 51 50 53 58 70 68 60 57 53 54 52 44 47 39 23 15 14 23 28 30 24 21 24 24 24 20 21 19 19 19 17 14 15 17 19
53 59 61 60 55 53 54 50 64 57 51 64 53 48 45 51 63 71 53 63 57 56 40 50 48 45 30 23 15 19 21 26 25 25 30 29 19 22 20 20 21 24 26 22 20 19 20
53 58 60 56 53 51 50 53 51 59 55 71 62 44 48 56 55 57 79 67 65 51 55 38 42 43 35 24 17 12 18 22 24 24 31 28 28 22 22 22 21 21 27 31 32 30 26
52 56 59 56 52 50 52 55 52 53 54 65 69 45 47 50 51 70 68 67 59 62 53 48 27 39 36 20 18 21 20 23 23 27 27 27 27 24 18 18 3 23 21 23 26 29 32
51 53 53 54 50 48 55 57 55 56 60 56 60 56 31 44 57 42 56 50 58 54 49 48 37 33 29 25 15 23 25 28 27 27 27 27 23 18 12 20 17 14 15 17 17 15 15
49 52 49 50 47 45 52 56 58 51 69 48 70 61 27 27 48 52 45 43 59 57 49 48 41 33 30 29 26 22 18 18 19 20 22 22 21 23 14 8 8 27 22 25 17 15 17
47 45 46 45 40 42 45 53 52 65 66 55 73 66 50 20 27 37 48 37 34 47 53 47 41 39 29 29 33 24 23 24 23 29 22 23 23 23 23 16 14 17 15 15 20 17 22
38 42 42 40 40 41 44 52 54 68 62 60 70 58 56 25 27 28 35 42 26 36 55 46 41 45 41 31 37 25 13 26 25 25 29 30 25 22 21 15 14 18 20 24 19 19 11
38 37 37 38 39 40 47 51 60 56 61 64 75 39 47 25 34 34 36 35 48 36 42 46 45 32 36 32 27 27 18 24 27 26 27 23 26 23 18 13 12 12 19 23 23 18 12

GFSGBSN_700_spd_030.txt.gz
Wind_Speed
32 32 31 30 31 31 32 32 32 33 33 32 31 29 28 27 28 26 26 26 26 23 20 20 17 15 13 8 6 4 4 2 1 4 8 9 6 9 5 3 5 5 3 1 2 3 2
36 34 33 31 30 30 29 29 29 29 30 31 31 31 29 29 29 27 26 26 25 23 20 19 16 14 11 7 6 1 3 2 4 8 10 7 6 5 6 3 3 7 1 1 4 3 3
42 40 37 34 32 30 29 27 27 26 25 25 26 28 29 28 28 27 27 27 25 22 20 19 16 13 10 8 5 6 4 4 3 12 8 6 5 1 3 3 2 5 1 1 6 3 3
48 46 43 40 37 34 31 29 26 25 22 21 20 22 25 27 27 26 27 28 25 22 21 20 16 12 7 6 8 9 6 4 4 11 6 8 6 5 5 2 1 4 5 1 4 3 2
53 52 50 46 44 40 36 33 30 26 23 19 17 16 19 23 24 25 28 28 26 22 22 21 16 13 8 11 12 12 8 7 7 11 8 10 10 10 8 3 3 2 5 4 2 4 5
58 57 55 53 50 47 43 39 36 33 29 24 22 24 21 22 21 21 25 27 25 23 22 22 17 13 11 15 18 14 12 10 9 11 11 11 15 11 8 4 2 2 6 5 6 4 13
64 61 59 58 57 54 50 47 42 38 34 33 33 33 27 23 22 19 22 28 23 22 24 23 16 10 10 17 18 17 14 13 8 6 2 3 7 9 8 5 2 5 5 5 5 7 12
68 67 65 62 61 59 57 53 49 45 39 34 30 31 32 30 32 24 23 24 20 21 25 21 19 18 16 21 23 21 17 14 10 6 3 2 3 5 6 7 4 1 5 6 7 11 12
62 67 69 69 65 63 61 59 54 50 45 39 34 32 34 26 29 26 23 20 18 19 24 22 23 19 21 24 25 25 21 16 10 9 4 4 2 4 7 8 8 8 8 14 12 12 4
51 56 64 69 71 67 64 63 60 55 49 44 38 33 31 30 29 23 19 18 13 16 14 19 15 20 26 29 29 26 23 18 16 12 6 5 8 6 8 14 11 8 10 13 7 6 4
49 48 50 53 68 71 68 66 63 60 55 48 42 37 33 30 28 25 17 11 8 7 3 8 14 15 25 33 23 30 26 22 18 13 9 5 5 9 13 11 15 11 10 10 6 4 5
50 51 47 44 46 60 71 69 65 62 59 53 47 41 38 34 29 23 23 12 9 9 9 6 9 18 27 35 19 29 30 24 20 15 15 14 12 8 12 11 12 10 9 8 7 6 1
55 53 53 48 44 44 53 70 68 65 62 58 52 47 43 37 31 25 22 17 13 13 9 12 14 20 26 37 28 26 34 31 24 20 21 17 16 14 11 11 12 5 5 3 3 3 4
54 57 56 56 51 48 43 50 68 66 64 61 56 52 49 43 34 29 25 23 17 11 29 7 18 20 24 34 36 21 31 33 27 23 11 16 11 13 14 11 6 8 4 3 2 1 3
49 49 56 58 56 53 47 41 52 47 64 64 60 58 55 48 39 35 31 36 24 19 13 33 10 17 24 30 29 30 27 33 30 26 19 13 10 9 13 12 7 6 5 4 3 2 1
55 52 51 56 59 55 50 44 39 46 49 62 64 62 60 52 43 40 40 49 34 21 24 17 22 15 25 28 29 34 32 31 30 28 22 17 7 8 12 9 11 10 6 3 3 2 3
57 57 55 54 53 54 52 46 35 47 44 42 54 62 65 55 48 46 53 49 41 33 30 17 19 13 22 28 29 28 30 22 34 28 23 19 20 19 17 18 12 12 12 13 12 6 4
57 57 59 57 56 54 52 47 43 57 48 40 44 57 64 57 51 55 60 58 38 43 32 28 15 24 20 24 30 31 30 22 19 36 25 20 15 24 26 18 19 19 19 16 17 6 7
58 58 57 60 56 58 52 48 45 52 57 50 49 47 40 51 54 64 60 54 53 46 42 40 34 17 18 18 21 28 30 27 24 25 28 25 25 19 18 19 20 18 16 14 15 13 15
53 58 56 57 60 58 54 48 48 51 57 49 52 41 38 41 66 67 59 50 55 51 46 45 38 30 20 17 16 23 29 25 28 30 24 20 29 25 24 23 12 14 18 16 15 11 17
54 52 56 58 60 56 55 49 50 56 55 53 52 44 48 56 65 72 62 57 54 56 52 44 45 42 31 18 11 23 26 29 28 27 27 27 26 29 32 26 23 21 21 18 19 20 22
57 53 54 57 52 57 56 50 50 48 53 52 55 47 51 39 63 69 45 56 54 58 45 52 46 42 41 31 12 13 16 26 29 24 23 24 21 24 22 21 21 21 23 21 22 25 25
51 52 55 55 55 54 57 52 53 52 60 64 60 54 50 53 42 55 78 60 55 55 57 41 45 43 39 39 20 16 16 16 19 27 27 28 27 23 22 20 21 23 28 27 30 33 32
46 48 54 57 56 52 58 55 62 56 65 65 62 60 52 37 45 69 60 62 48 60 58 55 39 34 39 32 29 28 23 21 21 24 25 30 30 28 22 19 4 29 29 28 27 29 31
45 47 52 54 58 54 59 56 61 66 58 57 55 59 46 46 44 45 53 41 48 44 53 52 43 17 19 29 34 24 20 23 20 26 28 30 28 23 16 21 25 22 20 20 18 21 20
44 42 46 56 63 53 56 55 57 68 65 57 52 63 40 33 45 46 34 47 47 57 51 53 34 38 29 23 19 26 15 17 15 25 28 29 29 30 14 9 9 26 23 26 24 27 23
40 40 41 50 51 54 50 49 55 56 59 68 56 59 55 26 29 37 49 43 38 44 54 56 46 35 28 22 29 26 20 20 21 28 26 29 28 27 26 17 18 21 17 14 17 29 19
33 38 39 47 49 45 42 46 50 55 48 51 59 67 52 41 19 25 39 39 36 41 46 43 36 45 41 34 22 20 23 25 24 28 32 33 29 27 25 15 16 23 24 28 28 20 19
34 41 40 40 45 40 38 44 53 51 54 42 60 46 46 25 31 20 36 41 41 40 32 27 42 40 36 29 32 26 19 22 29 29 32 35 35 28 26 28 26 22 22 20 23 22 11

GFSGBSN_700_spd_033.txt.gz
Wind_Speed
36 34 33 32 31 31 31 32 33 33 33 32 31 30 29 28 28 29 28 27 25 23 20 19 17 15 14 11 8 5 3 2 2 5 8 8 8 8 6 2 4 3 8 1 2 4 1
40 39 37 35 33 32 31 30 29 30 30 30 31 31 30 30 29 30 30 29 28 24 21 18 17 15 13 10 7 5 2 1 5 9 9 8 8 8 6 3 1 4 3 3 2 5 1
43 42 42 40 38 35 33 31 30 28 27 27 27 27 29 29 31 30 29 29 28 25 22 18 17 15 13 11 8 8 6 3 6 11 9 8 8 6 7 4 4 4 2 5 2 2 2
48 47 46 45 43 40 37 34 32 30 28 26 25 22 22 25 27 29 30 29 27 26 23 19 18 16 12 10 11 12 9 6 7 9 8 8 6 5 5 6 6 3 2 2 2 4 2
53 51 50 49 48 46 43 40 36 33 31 28 25 22 18 17 19 23 26 29 28 27 23 21 19 17 13 12 15 16 12 9 10 12 10 10 8 6 9 7 2 2 1 3 5 1 1
57 57 55 54 52 51 49 46 43 38 34 32 29 25 20 16 16 18 21 25 26 26 22 23 20 17 16 15 20 19 16 13 11 12 12 12 11 9 9 6 3 3 5 5 5 3 4
55 57 59 58 57 54 53 51 48 45 40 36 33 29 25 23 23 22 20 20 22 25 24 23 16 10 13 18 21 21 18 15 12 10 10 8 8 10 10 7 4 3 2 1 2 7 11
49 51 56 58 60 59 56 56 53 50 47 42 37 36 34 33 32 29 29 24 24 24 27 24 23 24 20 20 25 25 22 20 17 11 9 5 3 7 11 9 8 5 4 5 4 5 13
49 49 49 51 56 60 61 59 57 55 52 48 43 38 35 32 31 29 25 25 26 28 26 27 24 26 22 24 28 30 26 21 17 14 10 6 6 8 8 10 10 8 6 8 9 6 7
52 52 51 50 48 51 59 63 62 58 56 53 47 42 37 36 31 25 22 18 18 20 16 22 16 27 25 30 31 31 27 22 18 17 12 9 10 8 7 11 12 10 5 5 4 3 2
51 53 54 54 51 47 47 56 64 62 59 57 52 46 41 39 31 26 23 18 14 10 4 7 17 20 23 33 23 35 31 26 22 19 16 9 9 8 9 11 12 13 8 5 3 4 4
49 52 52 52 52 50 45 44 50 65 63 60 56 51 44 43 35 27 25 18 13 8 8 5 8 16 23 35 29 34 35 29 25 20 17 13 7 7 8 13 10 12 12 7 5 6 3
44 47 51 53 53 52 49 43 41 47 63 63 60 56 50 45 39 31 27 20 13 13 7 10 10 14 21 34 32 32 39 37 31 25 23 18 15 11 11 8 11 12 9 2 1 2 2
47 45 44 50 55 55 52 46 40 37 49 59 60 59 55 50 43 35 31 23 16 15 33 6 8 11 18 29 31 26 39 38 34 27 20 18 8 15 13 15 11 13 11 6 3 3 2
52 48 47 46 49 56 55 51 45 37 35 51 42 54 59 55 49 40 36 31 25 26 13 29 28 10 19 26 29 25 34 41 37 32 20 14 11 8 12 15 13 10 11 9 4 1 2
56 54 50 50 48 47 56 53 48 41 35 38 41 50 60 58 51 43 43 48 42 25 27 15 23 11 16 25 28 37 24 34 38 33 28 17 8 11 14 16 15 10 6 4 4 2 2
57 55 54 51 52 50 47 52 46 43 38 34 40 47 63 55 41 44 51 59 47 37 28 30 16 23 17 21 31 28 31 18 31 35 29 27 16 10 12 15 12 11 14 9 5 7 3
57 58 56 55 53 52 50 50 46 44 37 37 45 50 64 49 46 53 65 59 43 40 32 33 25 19 25 18 23 32 32 36 16 33 35 28 15 20 21 17 16 16 16 14 10 7 9
53 58 55 58 54 54 54 52 49 44 44 49 47 44 38 56 51 50 66 60 42 35 40 38 33 20 19 14 15 23 30 26 32 23 35 32 25 16 12 16 18 20 21 18 17 15 13
57 53 52 55 52 56 58 55 52 49 46 55 52 40 34 39 58 64 50 44 50 45 39 41 33 31 16 13 13 10 23 24 25 20 25 35 30 23 23 25 18 17 22 22 19 15 19
52 53 56 52 50 57 57 59 53 53 50 62 58 41 38 54 58 65 50 52 55 51 50 41 43 39 34 20 13 15 18 21 24 27 26 29 27 26 28 28 26 25 21 17 25 21 21
51 52 54 55 55 54 57 58 56 56 53 67 63 47 51 39 62 68 50 50 50 60 51 53 48 46 39 33 18 9 16 20 21 25 30 33 28 26 27 25 26 24 27 24 20 21 25
49 52 50 50 51 54 57 55 57 58 58 70 67 63 49 61 52 57 71 48 42 43 55 40 49 41 37 35 30 24 12 8 11 17 25 31 32 27 22 23 21 24 28 25 24 26 29
45 50 48 49 49 47 58 53 57 60 57 63 70 63 53 51 44 61 56 62 38 43 45 42 26 34 37 29 30 35 37 32 20 21 20 26 29 29 19 19 8 24 23 23 27 30 32
39 40 45 48 47 48 59 59 53 59 54 64 69 69 55 50 40 43 39 47 39 39 41 35 39 29 21 22 34 24 22 28 28 24 23 24 27 22 15 22 24 20 20 24 25 34 29
38 37 42 49 48 48 55 60 49 53 55 61 60 60 51 44 41 44 37 34 48 41 37 40 28 39 26 20 18 20 15 20 8 16 25 26 24 28 14 11 11 24 25 24 22 38 31
30 35 40 45 46 47 49 47 51 53 58 57 57 59 50 42 40 30 43 41 35 41 40 38 38 35 34 25 23 15 21 26 15 19 25 28 30 29 29 18 21 18 18 19 18 35 23
30 30 39 42 44 46 46 43 48 55 50 51 52 57 51 48 37 16 40 34 40 37 42 32 34 38 36 38 25 18 13 25 25 23 31 31 27 25 29 20 16 23 21 28 28 23 22
33 34 37 40 43 46 44 43 43 57 55 50 51 50 54 46 36 15 30 39 37 36 35 36 42 33 42 29 30 19 16 23 30 26 28 32 34 33 29 33 35 22 25 26 25 22 18

GFSGBSN_700_spd_036.txt.gz
Wind_Speed
36 35 35 33 32 31 30 29 28 29 29 30 30 30 31 31 30 30 29 28 26 24 23 21 20 16 15 14 11 10 8 5 5 6 7 10 9 8 4 3 3 3 8 8 5 5 3
39 38 37 37 36 35 33 31 29 28 28 28 29 30 31 31 31 30 32 30 29 26 24 23 20 18 15 13 11 10 9 6 7 9 9 10 11 9 7 5 3 8 4 5 5 2 1
43 42 42 40 40 38 37 35 32 30 29 28 28 28 28 30 31 31 31 31 30 27 26 25 21 18 17 13 11 12 10 7 9 12 11 10 10 9 9 4 5 7 2 3 3 1 3
45 45 45 45 44 43 41 39 37 33 31 30 28 27 27 27 28 27 26 28 29 28 26 27 23 19 17 14 12 15 13 10 10 12 10 10 9 9 9 8 5 1 4 4 1 4 4
47 47 48 48 47 47 45 44 41 38 35 32 30 28 27 26 25 23 20 20 22 25 26 26 25 21 18 17 15 19 17 14 14 14 11 10 8 8 10 6 6 3 3 2 9 7 3
46 46 47 48 50 50 49 48 46 43 40 37 33 30 28 27 25 20 16 14 16 18 21 24 25 19 19 12 19 22 20 17 17 16 14 11 10 8 10 10 11 4 2 4 3 10 8
45 45 46 46 47 49 52 52 49 48 44 41 38 34 31 29 27 22 17 16 15 17 16 19 21 18 18 16 19 24 22 19 19 18 13 13 11 13 12 13 8 6 4 3 1 5 7
42 42 43 44 46 46 49 52 53 51 49 46 43 39 35 33 30 28 24 23 23 23 26 19 19 24 18 13 21 27 27 24 23 17 14 11 13 11 14 15 12 8 7 6 6 8 9
45 45 45 46 45 44 45 47 52 55 53 50 48 43 40 37 35 32 31 28 25 25 27 36 29 28 27 27 23 31 30 27 23 18 16 11 7 11 15 13 13 9 9 6 7 7 9
51 50 49 49 49 47 44 43 44 51 56 54 51 49 44 41 37 32 29 25 20 21 19 34 33 27 29 29 31 32 31 26 23 21 16 13 12 12 12 12 13 10 8 5 5 5 5
42 47 51 50 50 51 49 46 42 43 45 56 55 53 49 44 41 34 30 22 18 14 6 8 16 23 23 35 24 34 35 32 23 21 21 15 17 15 12 12 14 10 9 5 3 5 5
45 43 43 48 52 52 51 50 46 43 41 43 55 57 53 49 42 35 31 23 18 9 10 7 9 17 21 34 28 24 39 35 23 20 24 13 17 14 12 12 12 11 11 7 5 4 8
43 43 44 43 41 51 54 52 49 42 40 39 42 55 56 52 42 37 32 24 14 19 9 11 11 13 20 26 26 25 42 41 31 25 24 20 17 12 12 9 13 11 11 10 8 7 7
45 43 43 44 43 41 49 54 52 45 40 37 39 43 57 55 44 39 33 31 20 23 30 8 13 10 14 20 24 27 33 38 33 27 21 22 18 18 15 15 12 17 15 9 4 5 4
48 45 43 43 43 41 39 48 52 49 40 37 33 38 44 58 45 44 38 34 41 33 23 29 9 7 13 19 18 25 31 40 37 33 24 23 21 13 18 16 14 14 16 12 5 4 5
53 52 51 47 46 44 44 42 48 44 40 36 31 38 38 52 47 48 40 45 39 27 23 22 34 13 12 19 23 26 27 34 34 33 27 13 17 16 14 15 19 12 14 8 8 6 7
59 57 53 51 52 51 47 46 41 43 38 35 29 39 46 38 39 47 42 51 50 32 23 24 20 23 19 17 25 28 23 17 37 33 31 22 16 9 15 17 17 17 12 9 7 6 5
62 59 59 53 53 51 50 47 43 41 40 39 38 47 39 34 42 55 53 60 45 38 27 27 25 21 17 18 18 28 32 28 14 33 40 31 19 18 15 14 18 16 15 16 14 9 8
55 59 60 58 50 55 53 50 48 45 48 45 45 43 37 33 45 55 60 63 42 26 34 30 25 24 23 17 15 21 28 33 24 18 31 33 24 20 19 19 21 17 17 16 16 17 15
59 62 58 56 57 57 56 55 53 53 51 50 52 47 35 38 42 48 67 68 44 37 27 32 28 23 25 23 19 15 24 29 29 28 21 31 29 32 25 21 15 16 20 20 20 18 18
50 49 48 53 54 45 50 57 58 57 56 60 58 46 55 55 54 60 63 68 66 49 37 28 29 30 25 17 19 19 17 24 25 25 28 32 31 30 28 23 21 23 23 20 24 23 23
52 53 52 52 50 56 51 52 60 62 61 68 61 48 54 37 50 49 54 57 56 40 39 41 34 27 25 22 17 9 14 17 20 29 28 26 26 29 27 28 25 23 25 25 25 23 22
47 50 57 54 53 50 57 50 59 64 63 73 62 61 40 52 36 40 58 59 49 49 47 30 32 26 34 36 23 18 8 19 10 8 29 31 27 24 24 24 23 20 30 25 25 25 25
46 51 55 55 52 53 52 55 57 64 64 70 63 58 50 40 36 46 53 51 49 46 43 42 25 31 22 37 34 32 28 27 23 15 14 24 30 22 20 19 9 22 19 19 22 24 25
42 49 56 52 50 52 50 54 52 66 62 65 64 59 49 44 34 34 39 45 39 39 35 31 36 23 25 31 31 22 25 30 26 22 20 21 24 17 13 18 20 15 24 24 23 26 21
12 29 46 45 48 47 51 51 49 56 59 61 62 62 49 49 38 32 29 40 43 34 38 36 25 31 21 30 20 13 13 19 11 12 22 23 26 23 19 12 9 20 19 21 22 34 21
18 29 35 40 45 43 49 54 54 50 54 57 60 56 60 43 29 28 35 30 33 43 35 34 31 29 28 30 21 17 13 17 23 11 14 26 27 29 26 12 14 16 16 16 16 32 16
22 28 33 40 41 43 44 57 51 52 51 55 53 50 58 45 29 33 30 36 31 40 43 34 35 33 34 28 22 17 15 17 23 25 20 21 22 22 20 15 15 21 20 24 30 23 22
25 29 34 40 41 40 44 47 39 52 47 53 48 46 46 52 29 30 32 28 31 32 37 36 43 39 36 26 20 18 19 17 20 24 29 27 19 18 27 23 29 27 25 23 21 23 25

GFSGBSN_700_spd_039.txt.gz
Wind_Speed
36 35 35 34 34 33 31 30 28 27 26 26 27 27 28 29 30 30 29 27 27 27 27 25 24 23 18 17 13 14 13 11 9 7 6 9 7 5 6 6 5 7 7 10 9 9 5
38 39 38 37 36 36 34 33 32 30 28 27 27 26 26 27 29 29 29 29 28 29 28 27 26 24 21 18 18 15 13 12 10 8 8 10 6 10 7 7 7 5 8 6 6 7 7
40 41 40 40 40 39 38 37 35 33 31 29 28 27 27 26 26 26 28 29 30 29 28 28 27 26 24 17 18 14 13 12 11 10 10 11 9 7 7 7 10 7 8 8 6 9 6
41 42 42 43 42 41 40 40 38 37 35 34 31 29 27 26 25 24 24 26 28 28 27 27 27 27 27 20 18 14 16 14 12 12 14 14 14 14 10 9 8 8 10 16 10 11 7
43 42 43 44 44 44 44 42 41 40 39 37 35 33 30 26 25 23 23 22 24 22 24 24 25 25 26 21 19 17 18 15 13 13 13 12 11 10 11 11 14 12 9 11 2 11 6
42 42 43 43 43 44 45 46 45 44 41 40 38 36 34 29 26 24 23 21 19 19 18 19 21 20 21 13 18 19 20 20 17 16 15 13 11 12 13 16 20 14 8 5 4 13 7
40 40 40 41 42 42 42 44 46 47 46 43 42 40 38 32 29 26 23 21 18 17 20 15 10 12 21 15 19 19 23 22 19 17 16 12 14 18 17 16 17 10 7 5 2 5 10
38 39 40 40 39 39 40 41 42 45 48 47 45 43 40 36 33 28 25 23 24 23 30 25 20 19 22 18 17 22 26 27 23 21 17 16 18 16 16 15 16 13 12 12 6 5 9
41 40 41 41 41 41 41 41 40 40 42 46 49 46 44 40 37 32 29 26 27 28 32 34 30 30 23 24 21 23 29 28 23 21 19 19 11 11 15 16 16 17 16 10 9 5 10
43 43 43 44 45 45 45 44 43 40 39 39 43 50 47 43 38 37 32 27 23 21 19 25 30 32 31 31 34 25 28 28 23 24 20 19 15 10 13 17 16 20 15 10 8 10 8
34 35 37 39 40 44 49 48 46 43 39 37 37 41 50 45 46 36 34 27 20 13 8 7 17 22 18 34 20 37 30 31 28 24 24 21 17 15 17 16 15 12 8 9 10 12 8
36 38 38 37 36 38 38 48 50 48 44 39 36 36 39 50 46 38 37 26 17 11 16 10 12 11 20 25 24 17 35 33 26 24 23 21 15 16 16 15 15 15 11 12 11 13 11
39 39 39 39 38 37 37 36 45 50 49 42 39 36 37 40 45 36 32 24 17 26 13 23 13 12 15 17 29 25 36 39 35 33 32 25 21 19 16 15 14 16 15 18 13 11 10
40 39 39 39 39 40 38 38 37 40 46 46 39 37 36 37 39 35 35 31 26 36 36 5 14 15 17 19 27 28 32 40 38 32 25 28 28 24 17 21 17 21 21 17 5 7 5
44 42 41 40 39 39 37 37 37 36 34 31 34 39 38 36 35 37 38 36 57 43 22 36 9 14 17 19 18 30 35 40 41 37 29 27 27 23 23 18 19 16 25 21 13 9 8
46 46 46 46 44 42 39 37 36 35 30 29 34 37 42 34 29 39 46 49 46 39 34 18 36 14 19 20 25 32 34 35 39 39 29 18 21 19 19 19 19 22 15 19 16 7 11
50 50 49 50 50 48 47 42 39 36 32 33 33 35 41 36 31 40 42 53 49 39 31 31 31 36 24 16 24 26 32 27 37 37 33 27 19 19 17 21 23 20 18 19 14 21 6
53 55 57 57 55 52 51 46 39 38 36 35 40 43 35 39 38 42 52 56 60 47 34 28 27 27 33 29 22 28 30 34 24 36 38 34 21 20 21 21 23 20 26 25 20 17 12
55 57 58 54 47 44 47 47 43 41 43 43 48 46 40 39 50 51 49 59 56 53 37 38 31 28 21 27 24 20 28 26 27 37 37 34 33 21 24 19 18 22 20 22 22 21 16
57 56 53 52 47 43 47 49 48 47 48 49 53 47 39 42 50 43 49 63 65 52 50 29 35 30 30 25 24 21 22 26 25 21 33 33 31 34 25 28 22 24 23 23 24 22 20
49 50 51 50 53 54 52 51 47 53 54 57 65 46 59 53 58 58 45 42 50 50 46 45 32 37 34 30 28 27 18 20 29 35 29 29 37 33 33 27 24 27 26 27 30 28 27
49 48 50 51 52 54 58 56 48 59 63 67 67 51 51 46 56 48 44 45 43 48 50 47 43 38 30 30 27 21 22 17 12 24 35 27 27 29 34 30 30 30 27 25 27 27 27
48 49 50 51 54 53 52 51 55 62 69 71 71 58 41 48 35 46 53 49 51 48 51 47 45 37 34 28 23 20 4 24 16 8 18 24 26 28 28 29 29 33 29 27 27 27 26
41 42 43 43 47 54 54 52 52 57 65 71 66 65 37 38 44 45 51 44 42 52 46 47 42 39 34 25 20 13 22 11 28 18 7 12 15 24 23 23 21 26 25 25 28 28 25
45 46 46 45 46 49 56 53 51 54 60 69 58 67 51 39 39 40 34 36 35 39 43 42 43 39 32 26 21 15 19 23 26 27 20 10 15 17 24 23 20 23 26 20 22 23 24
41 43 45 46 48 52 49 57 53 55 67 63 58 58 50 37 31 36 33 35 32 38 43 38 41 26 34 27 20 19 20 22 16 18 32 16 23 25 15 22 19 23 28 17 18 30 21
22 24 32 42 48 50 48 51 53 54 64 53 49 58 58 38 31 27 33 31 31 37 42 33 41 47 30 27 23 23 25 26 23 15 13 25 27 28 26 17 17 17 17 18 18 19 7
8 7 8 29 49 48 48 49 50 58 61 55 54 54 62 43 27 26 22 21 29 38 40 43 36 38 38 31 28 21 17 29 22 25 27 17 14 18 21 23 20 15 19 21 25 19 17
5 13 16 28 36 43 47 48 47 61 47 51 57 54 56 34 31 29 32 30 27 34 36 34 43 34 31 29 23 22 19 24 24 23 22 26 28 16 18 16 25 21 24 23 21 21 20

GFSGBSN_700_spd_042.txt.gz
Wind_Speed
35 34 33 33 32 33 33 32 32 31 30 28 27 27 26 25 25 26 26 26 26 27 26 25 24 24 21 22 17 23 15 13 12 8 7 6 7 6 12 11 11 12 13 14 13 14 11
38 38 37 36 36 35 34 33 33 33 32 31 30 28 26 24 24 24 25 27 27 27 27 26 27 26 25 24 19 22 16 13 12 9 9 8 7 10 17 11 13 11 13 15 11 12 11
36 38 38 39 40 40 38 35 35 35 33 32 32 31 29 26 25 23 23 25 27 26 27 27 27 29 28 19 21 21 17 12 12 11 9 8 10 12 9 13 14 16 17 15 15 10 10
38 38 38 39 39 39 40 39 38 36 35 35 34 32 30 29 27 25 24 23 24 25 24 26 28 30 31 21 20 20 17 15 13 13 14 14 17 14 13 12 15 16 17 19 17 13 13
40 40 39 39 40 40 41 40 40 39 38 37 36 35 33 30 28 26 24 24 24 24 22 24 26 26 28 23 21 19 20 15 15 15 15 15 14 14 11 15 16 18 22 17 11 6 12
38 38 38 38 40 39 40 40 40 40 41 41 39 37 36 32 30 28 25 23 23 23 24 21 22 20 13 16 12 20 19 17 16 17 15 14 12 13 14 14 22 9 17 14 10 11 11
34 34 35 36 36 37 38 38 38 39 40 41 41 40 39 35 32 30 26 22 21 19 25 24 12 16 10 9 14 15 16 22 17 18 19 15 15 19 17 18 19 17 14 22 5 1 10
34 35 35 35 35 34 35 35 35 35 36 38 40 41 41 38 35 31 27 24 17 26 32 28 23 25 17 12 15 14 19 25 24 25 19 17 26 17 18 19 19 18 18 19 9 7 7
35 36 37 36 35 35 35 35 35 35 32 33 35 39 40 41 37 31 31 26 25 26 33 39 34 31 23 23 22 16 23 27 25 24 24 24 18 16 22 18 16 18 19 18 13 10 10
38 38 39 40 39 39 38 37 37 37 36 33 32 34 37 37 34 36 29 25 24 21 23 32 30 32 32 26 29 21 25 28 25 27 25 25 21 20 15 18 16 19 17 17 12 14 14
41 41 41 42 42 40 39 38 38 37 37 37 33 32 33 33 35 30 25 29 19 14 8 9 11 25 16 33 17 29 28 29 31 27 22 28 23 20 19 18 17 16 10 17 13 17 20
43 40 39 37 37 37 38 38 39 40 38 37 36 31 34 31 31 24 27 23 20 10 13 7 14 19 21 21 34 13 26 34 30 28 27 25 22 21 21 17 17 14 9 12 14 16 16
41 40 38 38 37 37 37 36 36 37 39 38 37 34 34 32 26 23 23 22 16 23 14 19 15 13 15 16 27 31 29 37 38 35 35 28 27 24 19 20 19 17 15 14 12 13 10
41 39 38 37 36 34 33 33 33 33 34 36 33 30 33 33 26 24 26 28 24 33 37 5 8 21 18 15 19 27 29 38 37 33 29 30 25 27 22 24 21 18 21 15 4 3 10
41 39 37 38 38 36 34 32 31 31 31 31 26 28 30 34 29 26 33 38 50 41 19 41 10 16 19 18 18 25 31 36 40 41 35 29 33 21 26 23 23 20 24 23 8 7 8
40 39 39 39 38 38 36 34 32 29 28 25 27 28 32 27 28 30 33 40 49 37 38 27 37 24 17 21 21 22 33 29 35 37 38 33 18 26 27 27 23 26 18 19 14 5 6
41 41 40 41 41 41 38 35 32 31 26 27 28 31 36 26 28 35 44 50 57 48 34 38 33 29 33 21 25 26 25 32 28 34 37 34 24 20 23 33 26 22 24 17 20 23 6
43 43 44 43 42 42 41 38 36 36 29 34 36 41 38 28 37 47 50 51 47 38 42 45 35 33 28 32 29 19 28 26 27 31 43 40 25 30 26 23 23 27 26 27 24 13 11
46 48 50 49 46 43 44 44 41 41 41 41 45 43 35 34 47 51 52 49 46 40 42 40 40 33 26 30 28 33 28 26 25 28 41 40 41 19 27 28 26 27 30 24 28 23 22
51 52 52 50 47 46 45 41 40 44 48 47 51 47 47 41 46 50 54 57 48 42 41 41 39 32 27 26 25 20 19 22 23 24 32 31 36 39 26 24 23 25 26 25 26 24 20
51 49 49 47 47 49 50 43 41 47 52 54 60 47 56 56 58 56 44 36 43 35 41 38 43 42 38 32 28 26 19 14 23 15 27 32 34 39 38 31 29 28 27 28 29 34 27
50 44 46 46 45 45 43 43 43 48 54 60 66 56 56 42 49 48 47 49 42 29 36 48 48 45 34 41 27 24 27 25 17 25 21 33 29 30 37 33 34 35 30 32 29 29 31
40 41 42 42 43 43 42 44 48 53 59 61 68 65 38 59 38 46 55 55 52 34 28 38 48 42 45 35 36 29 26 20 24 12 26 28 27 31 30 32 27 40 39 30 28 30 25
39 39 40 42 44 47 48 46 53 60 61 60 67 61 52 42 53 44 52 53 45 36 35 30 42 43 41 34 30 32 29 26 25 8 10 20 29 29 22 19 22 29 32 31 29 26 25
38 37 38 40 42 44 48 50 52 54 67 61 56 65 69 39 40 49 41 41 38 34 34 32 37 44 36 37 30 28 21 19 25 16 14 9 13 14 17 29 32 28 26 24 26 28 27
34 37 39 43 46 47 45 46 52 54 55 57 66 47 62 59 38 35 34 35 40 37 33 32 41 35 37 45 32 22 14 13 11 6 15 21 12 10 14 18 17 22 24 22 21 36 23
30 34 38 40 43 49 53 49 48 54 53 51 60 58 62 59 48 30 37 38 34 34 36 29 41 29 37 47 36 30 24 22 15 16 13 14 18 22 18 15 13 19 22 21 32 25 11
27 27 28 29 34 39 53 51 50 50 51 52 56 52 63 58 40 50 39 28 33 35 35 31 32 36 34 40 38 29 23 25 26 20 20 15 13 18 14 9 16 8 18 27 27 33 33
16 15 17 21 31 36 48 48 48 47 52 49 47 49 49 49 33 34 37 38 34 36 29 29 45 33 36 30 21 33 17 19 27 25 23 18 21 22 13 17 13 11 27 19 21 17 21

GFSGBSN_700_spd_045.txt.gz
Wind_Speed
31 24 33 34 33 30 29 29 30 29 29 29 29 27 25 25 24 25 25 26 26 26 27 26 25 26 24 24 14 22 16 15 13 12 9 8 11 5 4 15 22 11 15 15 17 15 15
30 29 31 28 36 33 31 31 31 31 30 30 31 30 28 27 25 25 24 24 24 25 26 27 27 28 29 26 19 21 15 14 13 13 11 12 9 3 19 22 15 12 15 15 15 12 14
31 32 30 29 35 28 31 35 35 33 32 32 32 31 29 29 28 26 25 24 24 24 25 26 27 29 30 21 19 24 16 12 13 14 13 11 10 16 18 14 12 12 16 21 16 19 17
34 32 30 31 35 35 35 29 31 37 36 36 35 34 32 30 28 27 26 23 24 23 24 25 26 27 31 20 22 22 21 14 14 15 16 12 15 23 19 15 14 13 14 20 17 20 17
35 37 38 37 37 37 35 35 37 37 37 37 37 36 35 33 31 28 26 23 22 24 24 24 25 25 26 21 20 19 22 17 14 18 16 20 21 20 16 15 14 15 23 17 18 12 13
34 35 35 34 35 35 33 34 34 36 36 37 37 37 37 35 33 30 27 23 22 26 26 26 27 24 18 13 11 15 20 20 17 17 16 19 21 19 17 15 20 18 18 14 10 11 15
35 34 33 33 33 33 32 32 33 32 33 34 35 36 36 36 35 31 30 25 24 25 28 28 22 20 16 16 11 10 14 19 19 17 22 18 19 23 17 15 16 17 22 25 20 17 11
37 35 34 33 32 32 32 30 30 31 31 31 32 33 34 33 32 32 31 26 21 25 36 31 30 29 24 17 20 15 13 22 27 27 21 17 27 19 11 11 19 26 27 18 12 9 9
38 38 37 35 34 33 32 32 32 31 31 30 29 29 30 30 28 27 31 27 22 25 36 39 32 36 29 26 28 17 17 20 29 28 28 26 24 16 16 18 19 20 20 19 19 8 10
39 38 38 38 36 35 35 34 34 32 30 29 30 30 29 26 24 21 25 26 25 24 25 42 34 37 33 32 36 21 23 22 26 28 27 30 26 21 27 29 21 21 16 18 18 10 10
40 40 39 38 37 37 38 37 35 33 31 29 28 28 30 26 22 15 20 23 21 16 6 5 8 8 9 32 33 24 28 30 32 31 25 34 22 29 27 22 16 22 19 15 15 15 18
41 41 40 39 39 38 39 38 36 33 32 30 29 27 28 27 16 10 13 15 15 12 12 7 11 17 16 16 22 14 24 34 32 29 31 31 22 26 26 21 20 17 20 16 13 12 15
40 40 41 42 41 40 40 38 36 35 34 33 29 25 25 26 14 19 19 20 16 18 10 18 11 14 19 19 18 24 18 37 34 33 38 32 35 30 29 23 18 19 16 3 4 6 7
41 41 41 41 41 39 39 37 36 35 34 31 27 22 22 21 20 20 27 26 17 25 31 11 17 10 17 18 20 22 32 31 40 34 17 31 26 33 23 27 20 23 22 11 4 2 4
40 41 41 40 40 38 36 36 35 32 30 28 24 23 23 20 24 26 28 34 30 29 14 37 10 17 22 18 15 19 28 40 31 44 36 20 38 20 28 22 23 23 24 21 9 4 2
42 42 41 40 38 37 35 33 33 31 26 22 24 25 29 18 25 31 36 46 48 35 32 19 22 16 8 14 18 21 19 19 30 36 40 36 21 30 29 25 27 29 20 18 7 4 2
44 43 40 38 36 36 35 34 32 30 25 23 26 29 30 20 24 37 47 57 47 48 26 40 33 32 26 23 16 19 26 25 18 31 37 38 32 27 19 30 27 27 28 25 14 13 5
44 41 39 38 37 37 36 34 34 32 29 29 32 37 30 27 33 42 55 56 49 30 32 39 34 35 34 27 27 22 22 15 10 21 36 41 25 36 37 18 25 28 30 29 22 14 10
43 41 39 38 38 39 39 37 36 37 35 36 39 40 35 31 45 51 48 51 51 30 33 22 38 42 33 31 25 23 16 26 25 20 36 37 41 28 23 32 28 27 32 27 26 29 31
42 41 40 40 42 42 43 42 40 39 39 42 45 42 40 44 45 48 49 51 49 43 44 34 33 30 40 30 30 30 25 27 23 17 24 31 42 37 33 23 27 29 26 31 33 26 28
43 44 44 44 45 46 46 45 45 45 44 47 54 52 50 49 62 51 47 42 44 47 45 29 40 40 45 33 28 31 25 26 25 20 14 11 31 39 43 34 27 25 29 34 34 35 33
45 46 47 47 45 43 42 40 36 40 45 53 61 64 54 56 50 52 49 56 51 40 21 35 38 36 40 40 34 28 27 26 28 20 23 10 19 26 28 34 35 38 29 32 32 23 29
47 47 45 44 42 37 34 41 46 47 48 56 63 66 48 50 40 45 61 58 54 40 25 23 31 25 41 55 33 29 27 28 27 26 26 21 12 16 33 33 32 37 48 35 26 28 30
35 35 36 37 37 38 47 46 44 53 59 62 62 66 57 41 51 63 53 51 53 35 36 24 22 32 38 35 23 27 27 29 26 29 27 32 19 18 26 29 12 36 38 40 27 33 30
32 34 36 37 38 40 42 43 43 44 52 63 63 53 72 58 42 45 56 45 36 43 36 32 29 30 24 30 29 30 32 28 28 27 30 30 10 14 24 32 22 31 17 16 29 34 29
35 36 37 37 39 39 41 44 44 47 48 56 57 53 61 68 57 44 41 45 35 32 38 37 31 25 21 30 28 33 22 25 13 17 17 26 33 22 14 13 16 25 28 26 18 33 23
32 31 32 32 35 37 38 39 41 48 50 57 62 43 54 55 67 55 40 36 36 38 33 34 32 29 27 28 39 32 29 18 16 17 19 15 17 16 9 4 10 7 23 26 25 25 25
27 28 31 33 37 39 42 44 43 41 49 52 54 52 48 30 47 57 46 36 29 31 36 32 31 31 36 34 29 26 32 28 27 18 14 19 14 5 5 6 9 10 18 22 19 29 23
21 24 28 30 33 36 40 44 46 46 45 56 52 53 48 44 18 47 39 44 32 28 33 32 31 28 30 33 35 28 19 20 26 26 25 25 24 17 14 11 8 15 17 17 14 16 15

GFSGBSN_700_spd_048.txt.gz
Wind_Speed
25 26 24 23 25 27 35 42 30 24 28 31 30 26 26 25 23 22 21 23 23 24 25 28 28 27 25 27 16 21 21 16 15 11 11 12 12 12 13 10 12 15 16 10 13 17 17
26 26 26 29 28 25 26 23 30 24 22 27 29 28 28 27 25 24 22 22 23 23 25 28 29 28 28 29 18 21 25 19 17 14 12 14 9 11 16 16 16 18 16 12 13 13 15
33 31 28 30 33 33 29 29 31 26 29 29 29 27 29 28 27 25 25 24 23 24 24 27 28 28 30 22 18 24 20 15 18 15 13 13 15 16 16 16 14 16 17 20 20 10 16
30 30 33 36 34 33 25 22 24 32 30 27 35 33 29 30 30 27 26 25 23 25 25 27 28 29 30 21 20 23 22 18 19 16 14 17 20 22 19 19 17 12 16 19 2 9 17
29 30 30 32 34 35 34 36 32 32 34 34 28 32 33 33 32 29 29 26 24 28 26 28 29 26 28 23 22 21 25 21 19 19 17 24 24 20 20 17 17 18 22 17 20 5 7
31 31 32 32 32 33 33 33 32 31 33 33 35 37 34 33 32 31 31 28 27 28 31 30 31 25 23 18 15 19 21 24 22 20 21 27 24 23 21 19 18 14 16 16 15 11 12
33 33 33 33 32 32 31 31 30 29 28 29 31 31 31 30 30 30 29 29 30 32 37 34 25 20 14 14 16 20 16 21 24 25 26 22 28 33 23 19 17 17 20 24 23 16 13
34 34 34 34 34 33 32 30 29 28 27 28 28 29 28 26 25 25 27 25 30 33 40 37 37 33 25 21 24 21 22 22 28 30 25 21 33 26 17 15 17 17 22 25 24 9 7
35 36 36 36 36 35 33 32 30 29 28 28 28 28 26 23 19 21 21 20 28 33 39 42 35 38 29 29 32 23 23 23 27 30 29 31 25 17 18 16 18 20 25 25 20 15 11
36 36 37 38 37 37 36 34 32 31 29 27 27 27 26 22 19 17 16 16 25 26 23 43 39 36 35 34 40 28 26 26 25 33 31 26 27 24 15 20 17 24 17 22 19 12 8
35 35 37 39 38 37 36 34 33 31 28 27 25 25 24 19 17 15 13 15 19 16 6 10 10 7 7 28 32 32 30 30 30 31 32 32 22 24 25 23 18 26 15 19 21 20 17
38 38 38 38 38 37 35 34 33 32 30 26 24 24 25 16 14 16 16 15 15 9 10 7 8 11 14 12 24 18 35 31 26 29 31 31 28 20 20 18 20 21 23 18 18 15 6
40 40 40 39 37 37 36 33 33 31 29 26 24 23 23 15 12 21 16 19 14 13 6 12 9 13 13 12 22 24 23 42 37 27 34 32 35 28 25 24 22 24 23 6 4 3 6
42 42 41 39 37 37 36 34 33 32 28 25 23 22 21 12 20 23 24 27 19 11 25 7 13 12 22 16 16 21 19 29 43 31 14 27 17 34 26 32 26 19 23 15 6 3 4
42 40 39 38 37 37 37 36 33 32 28 23 22 24 25 15 21 29 33 38 20 26 2 36 11 11 6 17 12 16 23 28 36 42 24 12 21 22 33 26 22 19 26 22 17 4 1
41 38 38 38 39 38 37 36 33 30 27 22 25 27 28 19 22 31 39 44 32 21 21 9 13 6 5 12 11 13 16 14 30 36 33 34 16 14 29 24 27 29 25 12 10 5 3
40 39 38 38 38 37 37 35 33 31 27 25 27 28 28 24 24 33 49 47 39 38 26 24 17 13 14 11 5 6 4 12 15 16 40 33 38 36 20 29 30 25 34 21 15 14 5
40 40 39 38 38 37 35 34 32 32 28 31 30 35 32 30 35 39 49 49 29 12 23 34 34 27 20 12 18 20 10 6 4 4 29 35 25 38 44 28 12 25 30 34 23 8 13
42 41 40 39 38 36 34 34 34 34 32 35 34 37 34 33 43 49 46 40 46 28 22 22 33 35 32 26 11 6 8 11 15 11 2 12 32 23 24 38 39 34 26 29 29 28 26
43 42 41 39 37 36 36 35 37 38 36 39 38 37 40 45 50 46 42 38 41 40 39 29 32 31 28 33 31 22 21 13 13 18 15 16 20 32 32 23 25 23 29 28 32 30 25
44 44 41 40 38 38 38 38 39 41 39 41 44 44 48 43 58 50 42 38 41 41 31 26 43 40 31 32 28 42 33 20 20 18 19 19 27 20 34 32 38 26 34 32 29 33 30
47 44 41 39 38 38 37 38 40 41 42 46 52 57 46 54 36 43 53 54 47 24 29 25 38 28 31 42 31 15 19 13 14 19 24 17 17 18 25 30 31 35 36 33 38 32 37
42 41 41 40 40 40 40 41 42 44 44 50 57 57 51 46 48 42 59 47 40 34 32 21 16 15 31 30 26 29 30 29 25 21 22 22 24 16 15 25 20 32 49 38 36 31 20
38 38 39 40 41 42 42 42 42 43 46 54 60 61 59 54 54 70 46 42 44 40 36 31 22 18 13 10 16 19 29 29 21 21 18 20 26 17 11 15 16 35 24 37 44 42 35
30 31 31 31 31 31 33 36 38 42 44 57 59 63 65 60 58 52 57 50 38 36 39 37 25 16 8 8 19 20 28 27 31 26 22 21 20 13 13 10 18 26 22 15 29 48 46
27 28 30 31 31 33 36 38 40 47 51 55 58 64 64 61 70 59 47 47 46 42 38 35 26 26 19 17 17 23 12 19 11 9 11 14 16 15 19 8 6 18 18 24 7 17 13
29 31 33 34 34 37 37 39 41 51 52 49 54 62 55 49 52 52 59 49 32 33 35 28 23 28 30 28 27 25 28 22 15 13 15 10 10 18 19 9 21 35 22 20 28 25 16
29 29 29 30 32 33 36 38 41 44 48 48 47 50 55 46 53 49 48 49 39 30 25 25 22 27 32 33 31 24 19 27 23 14 22 21 9 14 11 9 15 28 8 22 13 13 21
23 24 25 28 31 32 33 34 36 41 46 50 50 48 44 45 15 41 45 45 42 41 30 28 28 27 35 23 32 16 24 18 29 27 23 19 19 9 10 15 22 29 27 12 12 12 16

GFSGBSN_700_spd_054.txt.gz
Wind_Speed
26 26 27 27 28 28 28 28 26 29 29 30 33 33 32 37 35 36 40 37 33 28 26 27 27 24 24 22 18 15 11 10 13 16 14 13 17 17 19 17 19 24 20 18 14 13 14
27 28 28 29 30 31 31 32 32 31 32 31 31 30 27 33 33 36 41 41 35 29 28 28 29 24 26 22 20 17 23 23 20 18 20 18 18 18 18 20 20 21 22 21 19 15 16
26 26 26 27 29 29 30 30 31 32 34 34 32 30 26 24 31 31 36 44 38 31 28 29 30 29 31 17 21 14 24 24 24 24 22 20 20 22 21 20 21 21 24 23 21 21 21
27 27 27 28 29 30 30 30 30 31 33 33 34 31 28 24 25 31 32 31 40 36 24 27 30 33 38 19 21 16 25 21 21 20 20 22 23 25 24 21 20 19 21 22 8 8 11
29 28 30 30 31 31 32 31 32 32 32 32 32 32 34 35 31 35 30 36 31 30 24 29 31 33 33 25 25 24 23 22 23 21 19 21 25 25 26 22 22 20 21 16 11 7 10
29 30 32 31 31 31 32 31 32 33 32 31 32 31 30 30 30 33 32 31 30 32 31 34 33 30 25 14 8 18 26 27 24 27 24 26 27 29 31 28 27 22 18 21 17 11 12
32 33 33 33 32 32 32 32 32 32 31 31 30 30 29 28 29 27 29 32 31 32 36 36 32 27 22 22 18 22 18 20 26 31 31 30 31 39 36 32 24 18 14 15 19 14 16
34 35 34 33 33 32 32 31 32 32 31 30 31 28 27 26 26 25 26 27 28 28 35 33 35 38 31 33 27 17 25 22 22 32 34 31 41 35 29 28 24 22 21 21 19 14 14
36 37 36 34 33 33 32 32 32 32 31 31 30 28 26 26 24 23 23 23 23 27 31 35 32 36 33 37 34 25 23 24 24 28 36 38 24 35 33 32 30 25 24 21 18 15 16
38 38 37 35 34 33 32 32 32 32 32 31 31 28 25 24 22 22 21 19 18 21 20 33 27 25 27 33 37 26 33 29 27 26 30 31 40 19 22 39 31 31 23 17 18 19 13
41 40 37 36 34 33 33 33 32 32 33 32 31 28 25 23 19 19 20 14 12 12 6 7 5 11 8 12 15 21 31 39 34 26 25 25 31 30 19 24 33 31 19 18 15 20 24
42 40 37 36 35 34 33 33 32 31 32 31 30 28 25 19 16 18 17 12 5 4 8 3 5 8 10 9 12 16 25 41 39 31 24 20 23 22 34 30 18 19 16 13 16 20 8
40 39 37 35 36 35 35 34 32 31 30 29 28 27 26 19 15 16 15 13 8 9 4 1 1 7 9 10 10 15 15 42 38 31 29 24 25 17 15 15 21 25 17 1 2 2 6
40 39 37 36 36 35 34 33 33 32 29 26 25 27 24 20 17 17 18 19 13 4 17 13 7 6 5 5 6 16 5 28 37 28 18 25 11 29 32 27 17 27 26 9 6 4 4
40 39 38 37 36 35 35 34 33 32 28 24 26 27 27 19 19 17 22 23 9 17 8 10 15 7 1 5 1 10 9 7 32 33 18 15 17 16 14 29 33 23 18 25 17 3 2
40 39 38 37 36 35 35 34 32 30 26 22 27 26 25 20 20 20 26 32 21 11 15 21 8 6 6 4 3 4 6 7 12 33 35 18 6 4 9 13 25 33 14 16 11 5 5
41 39 39 38 36 35 34 32 31 27 24 20 24 23 24 22 20 30 38 31 26 21 9 17 10 8 5 5 7 6 5 8 8 8 25 34 21 13 12 10 14 23 31 24 14 13 4
41 40 40 39 36 34 33 31 29 25 23 20 22 27 25 23 28 36 40 32 31 28 27 22 25 19 17 15 8 6 6 6 8 6 7 17 10 27 35 24 12 11 13 25 23 8 10
39 40 40 38 37 34 32 30 28 26 21 19 28 30 29 29 34 41 34 37 32 29 29 32 26 20 24 23 14 6 2 4 4 2 5 3 2 1 4 13 15 14 18 27 22 20 26
39 39 38 36 36 34 33 31 30 28 23 26 33 27 39 34 42 36 42 36 33 31 31 32 23 18 22 17 13 11 16 8 11 7 2 6 2 3 3 3 9 13 9 13 26 30 21
38 36 37 37 37 36 35 34 32 30 25 32 37 43 30 29 47 41 39 35 35 32 24 21 36 31 18 9 9 15 17 14 21 14 9 3 6 8 10 11 15 19 20 18 20 22 30
36 36 37 38 39 39 38 37 35 33 28 39 42 45 46 32 39 43 35 39 35 29 28 24 23 26 27 31 29 20 14 9 9 8 19 10 5 8 11 11 16 19 19 23 27 26 31
37 35 35 36 39 42 44 42 38 36 33 42 45 48 38 34 38 34 43 42 39 31 30 25 17 13 13 17 15 19 21 16 16 13 11 10 8 10 8 9 14 15 5 7 15 21 21
33 32 32 33 36 40 43 44 42 40 42 45 47 46 48 40 34 39 34 36 37 32 27 21 16 17 4 4 8 13 21 21 17 16 15 9 10 9 11 7 3 10 14 15 11 8 11
32 33 33 34 31 30 37 40 41 41 44 47 49 49 50 52 47 40 41 34 24 27 30 25 18 14 16 10 14 5 7 14 22 19 20 19 17 8 5 8 17 21 20 22 28 31 33
33 33 33 34 32 29 33 35 37 41 42 44 49 49 50 49 54 46 35 36 33 29 23 20 10 13 14 16 13 6 4 3 3 3 18 23 19 18 10 2 4 17 11 16 19 32 32
31 29 29 29 30 30 29 30 33 36 40 44 49 50 52 51 48 39 47 34 33 33 29 21 18 19 19 20 17 13 10 5 4 6 9 20 18 22 19 8 16 19 17 16 10 19 16
24 24 24 24 24 26 29 31 33 35 35 40 45 47 51 50 47 43 37 38 41 28 27 20 16 20 21 25 18 16 11 9 12 11 7 13 13 12 14 8 13 8 2 7 15 24 26
25 24 24 24 23 25 27 27 29 35 37 36 40 42 41 47 35 22 19 24 35 19 15 23 24 18 11 19 21 10 14 9 10 6 15 14 17 8 12 13 14 14 17 22 28 32 29

GFSGBSN_700_spd_060.txt.gz
Wind_Speed
26 26 27 27 27 27 27 26 26 26 26 25 24 23 23 24 26 28 28 29 27 27 29 31 34 35 34 32 25 23 11 14 14 21 24 24 27 23 22 20 20 27 19 16 16 18 19
29 27 27 27 26 26 26 25 25 25 25 23 23 23 24 26 28 29 29 29 29 27 27 23 25 28 37 39 28 27 19 17 15 18 22 24 23 20 17 20 23 14 22 20 18 20 18
28 29 27 27 27 28 26 27 27 26 26 26 26 25 26 27 28 30 30 29 30 32 29 29 29 31 32 37 32 31 30 26 23 22 24 24 23 22 17 15 22 20 16 17 20 20 18
28 27 28 29 28 27 25 25 26 26 26 26 27 27 27 28 29 30 29 29 30 31 31 32 32 29 33 25 35 34 29 29 23 27 26 25 24 23 22 18 17 18 19 23 17 18 19
30 30 28 28 28 27 25 25 27 26 27 27 26 26 27 27 28 29 28 28 30 30 28 29 27 29 29 22 23 21 37 33 24 26 34 31 28 26 22 20 17 17 22 21 17 15 14
29 29 30 29 28 27 27 26 27 27 27 26 25 26 27 28 27 29 28 27 29 29 28 25 24 22 20 14 13 21 28 34 34 23 29 32 37 31 27 26 29 22 20 20 17 11 16
32 30 29 28 28 28 28 27 27 27 27 26 25 26 26 27 26 28 28 26 27 31 24 24 24 22 20 17 15 19 33 18 30 27 28 32 28 36 33 31 25 19 17 16 15 15 17
32 32 30 29 29 29 29 28 27 27 27 26 24 25 26 25 25 28 28 28 26 28 31 18 22 24 23 23 19 22 27 28 25 20 26 23 34 28 23 24 26 26 19 18 14 12 15
33 32 31 31 31 30 29 29 29 28 28 26 25 25 25 23 23 26 25 25 26 25 30 14 7 7 15 25 25 20 26 21 19 19 24 32 18 28 23 23 25 28 26 20 18 10 12
35 33 33 32 32 31 31 31 30 30 28 27 26 26 26 22 21 22 22 21 20 20 17 10 11 8 10 3 20 25 29 22 18 15 18 22 30 24 20 29 26 27 24 22 18 15 15
35 35 35 34 32 32 31 30 30 29 28 27 26 27 25 22 19 19 18 16 14 17 6 8 8 7 10 6 2 9 28 32 31 22 16 22 19 29 26 21 24 26 15 17 17 18 17
36 35 35 35 33 32 31 29 28 27 27 26 26 26 24 20 19 17 15 10 7 3 5 2 3 6 15 14 4 8 7 28 32 28 26 23 17 16 23 23 17 9 10 9 12 15 16
38 37 36 35 34 32 31 30 27 27 27 25 26 26 24 19 17 15 13 7 2 6 4 4 5 9 14 11 5 8 9 18 21 26 27 23 24 14 15 23 20 20 16 9 10 10 11
41 39 38 36 34 32 31 30 27 27 26 25 26 26 23 17 17 15 11 5 9 3 7 9 14 12 6 6 3 5 8 14 24 20 14 25 12 21 16 19 17 24 26 12 8 10 9
43 41 40 38 35 33 32 29 27 27 24 25 26 25 20 17 18 16 13 11 6 8 9 12 10 8 2 2 1 3 4 4 12 21 18 18 25 19 21 22 23 18 31 22 13 3 5
41 41 42 40 37 34 31 28 28 25 23 24 25 27 17 19 17 13 16 15 11 12 11 9 7 6 5 7 4 2 6 7 4 21 21 11 9 16 18 20 22 14 11 14 19 13 12
31 37 40 40 38 35 32 28 27 24 22 23 24 24 17 16 16 19 25 16 16 15 12 10 10 8 9 9 7 4 4 2 6 8 28 16 12 7 15 22 24 27 19 13 14 22 11
33 32 35 35 35 35 32 28 25 22 22 23 16 20 12 13 22 25 29 16 19 15 16 17 16 13 12 11 10 5 4 6 6 6 14 24 9 14 12 9 17 21 21 27 20 13 14
33 33 32 30 29 30 30 28 25 22 23 17 21 22 17 17 22 27 20 21 20 18 15 15 17 21 15 9 7 6 4 8 10 4 8 11 13 10 17 17 9 13 12 12 22 21 19
30 28 29 30 30 31 28 26 21 22 23 22 20 17 19 25 26 20 21 23 20 19 20 18 16 20 16 17 15 11 10 9 12 9 8 3 10 18 12 10 12 13 15 8 13 15 17
29 26 27 27 26 27 25 24 24 25 26 26 27 24 18 13 31 31 22 16 22 22 21 17 18 23 19 19 15 17 17 16 13 20 11 5 2 4 3 6 6 8 9 9 11 12 11
29 28 30 30 30 30 25 29 29 29 28 32 34 34 24 21 20 16 27 35 21 21 19 17 19 14 17 22 24 16 11 10 10 8 13 12 3 1 2 3 3 5 8 10 10 12 14
29 29 29 30 30 31 29 28 28 30 34 36 37 34 22 25 26 27 25 24 23 26 24 22 19 17 19 15 17 18 22 22 20 15 12 13 13 8 10 6 6 10 16 11 10 6 7
27 26 26 26 26 26 26 27 29 31 36 38 36 31 33 30 21 25 24 23 22 22 23 19 21 20 19 21 19 17 17 21 22 25 21 10 10 10 9 6 7 7 9 12 11 7 7
31 31 30 28 28 28 28 30 32 33 34 37 37 36 34 37 31 29 24 20 21 25 23 26 24 23 20 17 9 8 11 11 18 22 26 23 12 8 9 17 11 5 10 15 12 7 8
25 27 29 31 32 32 32 33 35 35 35 42 40 31 37 29 33 28 26 27 19 20 23 25 26 23 18 12 11 6 7 8 8 7 20 17 19 13 9 9 6 4 11 13 10 8 2
26 24 23 22 23 25 28 32 34 36 38 38 41 42 34 42 22 17 30 28 31 28 24 24 19 21 20 16 10 8 6 6 7 12 17 23 19 23 17 12 8 13 10 9 10 4 7
23 23 23 24 25 27 27 29 32 35 35 38 42 43 46 43 43 36 24 23 27 29 26 24 21 24 21 19 14 10 8 9 5 8 15 18 19 18 20 13 10 8 13 9 9 6 11
25 24 24 23 23 26 30 31 32 34 33 34 42 41 41 42 33 32 38 27 25 28 26 30 26 11 15 16 13 7 9 9 11 8 12 11 13 11 13 12 8 9 13 14 11 17 19